[[{"header":{"parameterUnit":"m.s-1","parameterCategory":1,"la1":30.2991,"la2":30.254,"lo1":-89.0895,"lo2":-89.0444,"dy":0.0017,"dx":0.0017,"nx":28,"ny":28,"refTime":"2024-03-02T09:00:00:Z","depth":0,"parameterNumber":2,"parameterNumberName":"U-component_of_WINDS"},"data":[0,0,0,0,0,0,0,0,0,0,0,0,0,0,0,0,0,0,0,0,0,0,0,0,0,0,0,0,0,0,0,0,0,0,0,0,0,0,0,0,0,0,0,0,0,0,0,0,0,0,0,0,0,0,0,0,0,0,-0.6127,-0.6127,0,-0.6193,-0.6194,-0.6195,-0.6199,-0.6198,-0.6197,-0.6197,-0.6267,-0.627,-0.6272,0,0,0,0,0,0,0,0,0,0,0,0,0,-0.6006,-0.6008,-0.6127,-0.6127,-0.6128,-0.6193,-0.6194,-0.6195,-0.6199,-0.6198,-0.6197,-0.6196,-0.6266,-0.6269,-0.6273,0,0,0,0,0,0,0,0,0,0,0,0,0,-0.6064,-0.6008,-0.6127,-0.6138,-0.614,-0.6193,-0.6194,-0.6195,-0.6199,-0.6198,-0.6197,-0.6196,-0.6265,-0.6269,-0.6273,-0.6319,0,0,-0.6285,-0.6286,0,0,0,0,0,0,0,0,-0.606,-0.6068,-0.6136,-0.6137,-0.6139,-0.6187,-0.6177,-0.6237,-0.62,-0.6177,-0.6197,-0.6195,-0.6241,-0.6247,-0.6262,-0.6323,-0.6326,-0.6285,-0.6287,-0.6289,-0.629,0,0,0,0,0,0,0,-0.6056,-0.6065,-0.6153,-0.6137,-0.6139,-0.6141,-0.6148,-0.6188,-0.6215,-0.6179,-0.6179,-0.6187,-0.6242,-0.6258,-0.6264,-0.6327,-0.6285,-0.6288,-0.6291,-0.6292,-0.6429,-0.643,0,0,0,0,0,0,-0.605,-0.6062,-0.6151,-0.6155,-0.6096,-0.6144,-0.6152,-0.6173,-0.6214,-0.622,-0.6188,-0.6187,-0.6252,-0.6259,-0.6266,-0.6324,-0.6289,-0.6293,-0.6295,-0.6427,-0.6429,-0.643,0,0,0,0,0,0,-0.6047,-0.6058,-0.6148,-0.6109,-0.612,-0.6147,-0.6171,-0.6175,-0.6191,-0.6221,-0.6226,-0.6199,-0.6252,-0.6261,-0.6306,-0.6326,-0.6294,-0.6298,-0.6426,-0.6428,-0.643,-0.6438,0,0,0,0,0,0,-0.6044,-0.6057,-0.6074,-0.6109,-0.6122,-0.6186,-0.6172,-0.6177,-0.6197,-0.6196,-0.6233,-0.6238,-0.6252,-0.63,-0.631,-0.6331,-0.6301,-0.6424,-0.6427,-0.6429,-0.6436,-0.644,-0.6444,0,0,0,0,0,-0.6039,-0.6075,-0.6075,-0.6086,-0.6145,-0.6187,-0.6195,-0.6209,-0.6199,-0.6217,-0.6236,-0.6237,-0.6322,-0.6305,-0.6316,-0.6338,-0.6423,-0.6426,-0.6429,-0.6435,-0.644,-0.6444,0,0,0,0,0,0,-0.6043,-0.6079,-0.608,-0.6128,-0.6154,-0.6188,-0.6211,-0.6214,-0.6244,-0.6243,-0.6259,-0.6268,-0.6312,-0.633,-0.631,-0.6385,-0.6372,-0.6377,-0.6372,-0.6377,-0.6381,-0.6376,-0.6304,0,0,0,0,0,-0.6049,-0.6079,-0.611,-0.6149,-0.6162,-0.6184,-0.6204,-0.6212,-0.624,-0.6252,-0.6275,-0.6303,-0.6336,-0.6357,-0.639,-0.6439,-0.6447,-0.646,-0.6463,-0.6466,-0.6471,-0.6498,-0.6504,-0.644,-0.644,-0.644,0,0,-0.6062,-0.6086,-0.6105,-0.615,-0.6172,-0.6204,-0.6194,-0.6229,-0.6253,-0.6257,-0.6301,-0.6319,-0.6351,-0.6399,-0.6421,-0.6415,-0.649,-0.647,-0.6472,-0.6475,-0.6502,-0.6508,-0.6513,-0.6442,-0.6442,-0.6441,0,0,-0.6103,-0.6124,-0.6158,-0.618,-0.6212,-0.6226,-0.6234,-0.6268,-0.6279,-0.6323,-0.6327,-0.6357,-0.6413,-0.6436,-0.6455,-0.6504,-0.6506,-0.6514,-0.6533,-0.656,-0.6565,-0.6569,-0.6587,-0.6593,-0.6518,-0.6518,-0.6518,0,-0.6115,-0.6163,-0.6176,-0.621,-0.6231,-0.6235,-0.6271,-0.6291,-0.6332,-0.6347,-0.6339,-0.641,-0.6432,-0.6485,-0.6496,-0.6512,-0.6522,-0.651,-0.6563,-0.6568,-0.6572,-0.6589,-0.6596,-0.6519,-0.6519,-0.6519,-0.6519,0,-0.6177,-0.621,-0.6235,-0.6274,-0.6296,-0.6331,-0.635,-0.6372,-0.6378,-0.6393,-0.6438,-0.6464,-0.6502,-0.6515,-0.6522,-0.6569,-0.6564,-0.6559,-0.6546,-0.6579,-0.6595,-0.6602,-0.652,-0.652,-0.652,-0.6519,0,0,-0.6223,-0.6268,-0.6276,-0.6294,-0.6329,-0.6356,-0.6391,-0.6426,-0.6445,-0.6473,-0.6503,-0.6551,-0.6547,-0.6568,-0.6577,-0.6601,-0.6638,-0.6593,-0.6594,-0.6601,-0.6691,-0.6695,-0.6702,-0.6639,-0.664,-0.6641,-0.6689,0,-0.6268,-0.6329,-0.6342,-0.6395,-0.6426,-0.6431,-0.6461,-0.6487,-0.6502,-0.6531,-0.6547,-0.6581,-0.6573,-0.6586,-0.6609,-0.6628,-0.6656,-0.6625,-0.6668,-0.6669,-0.666,-0.6711,-0.6715,-0.6758,-0.6695,-0.6696,-0.6697,0,-0.6329,-0.6357,-0.6414,-0.6445,-0.6458,-0.6485,-0.6519,-0.6546,-0.6575,-0.6585,-0.6608,-0.6615,-0.6652,-0.6636,-0.6688,-0.6666,-0.6684,-0.6696,-0.6698,-0.6704,-0.6685,-0.6718,-0.6773,-0.6779,-0.6707,-0.6706,-0.6706,0,-0.6357,-0.641,-0.645,-0.6465,-0.6502,-0.6521,-0.6538,-0.6565,-0.6586,-0.6615,-0.6629,-0.6663,-0.6681,-0.6708,-0.6723,-0.671,-0.6774,-0.6759,-0.6783,-0.6783,-0.6797,-0.6796,-0.6856,-0.6808,-0.6808,-0.6807,-0.6807,0,-0.6406,-0.6441,-0.6463,-0.6488,-0.6527,-0.6541,-0.6579,-0.6595,-0.662,-0.6649,-0.6655,-0.6682,-0.67,-0.673,-0.6742,-0.6783,-0.6792,-0.6801,-0.6804,-0.6801,-0.68,-0.6813,-0.6811,-0.6809,-0.6809,-0.6809,-0.6808,0,-0.6444,-0.6461,-0.6505,-0.6536,-0.6545,-0.6572,-0.6599,-0.6624,-0.6638,-0.6675,-0.6684,-0.6707,-0.6743,-0.6761,-0.6805,-0.6813,-0.686,-0.686,-0.685,-0.6851,-0.6874,-0.6872,-0.6946,-0.6956,-0.69,-0.6901,-0.6901,0,-0.6475,-0.6501,-0.6535,-0.6554,-0.6571,-0.6602,-0.6622,-0.6637,-0.6658,-0.6693,-0.6714,-0.6749,-0.6778,-0.6834,-0.6856,-0.6889,-0.6892,-0.6915,-0.6897,-0.6893,-0.6893,-0.6891,-0.6894,-0.6919,-0.6919,-0.692,-0.692,0,-0.6528,-0.6534,-0.6563,-0.6595,-0.662,-0.6646,-0.6672,-0.6687,-0.6706,-0.673,-0.6765,-0.6788,-0.6832,-0.6868,-0.6903,-0.6921,-0.6924,-0.6925,-0.6933,-0.693,-0.6923,-0.6927,-0.6859,-0.6924,-0.6923,-0.6923,-0.6923,-0.6923,-0.6564,-0.6587,-0.6614,-0.6646,-0.6667,-0.6691,-0.6715,-0.6733,-0.6762,-0.6799,-0.6806,-0.6844,-0.6872,-0.692,-0.6938,-0.6968,-0.6964,-0.6974,-0.6977,-0.698,-0.6981,-0.6917,-0.6975,-0.6975,-0.6975,-0.6975,-0.6975,0,-0.6617,-0.6634,-0.6664,-0.6699,-0.6724,-0.6724,-0.6752,-0.6774,-0.6807,-0.6832,-0.686,-0.6901,-0.6935,-0.6959,-0.6993,-0.7013,-0.7016,-0.7022,-0.7021,-0.7025,-0.6983,-0.6973,-0.7019,-0.7019,-0.7019,-0.7019,-0.7019,-0.7019,-0.6648,-0.6688,-0.6697,-0.6748,-0.6765,-0.6801,-0.6818,-0.684,-0.686,-0.6905,-0.6933,-0.6948,-0.6973,-0.7009,-0.704,-0.7047,-0.7059,-0.7066,-0.7072,-0.7033,-0.7028,-0.7024,-0.7014,-0.7068,-0.7068,-0.7111,-0.7112,-0.7112]},{"header":{"parameterUnit":"m.s-1","parameterCategory":1,"la1":30.2991,"la2":30.254,"lo1":-89.0895,"lo2":-89.0444,"dy":0.0017,"dx":0.0017,"nx":28,"ny":28,"refTime":"2024-03-02T09:00:00:Z","depth":0,"parameterNumber":3,"parameterNumberName":"V-component_of_WINDS"},"data":[0,0,0,0,0,0,0,0,0,0,0,0,0,0,0,0,0,0,0,0,0,0,0,0,0,0,0,0,0,0,0,0,0,0,0,0,0,0,0,0,0,0,0,0,0,0,0,0,0,0,0,0,0,0,0,0,0,0,-1.6827,-1.6827,0,-1.6836,-1.6836,-1.6836,-1.683,-1.683,-1.6829,-1.6829,-1.6838,-1.6838,-1.6838,0,0,0,0,0,0,0,0,0,0,0,0,0,-1.6802,-1.6802,-1.6827,-1.6827,-1.6827,-1.6836,-1.6836,-1.6837,-1.683,-1.683,-1.6829,-1.6829,-1.6837,-1.6838,-1.6839,0,0,0,0,0,0,0,0,0,0,0,0,0,-1.6812,-1.6802,-1.6827,-1.6825,-1.6825,-1.6836,-1.6836,-1.6837,-1.683,-1.683,-1.6829,-1.6829,-1.6837,-1.6838,-1.6839,-1.6852,0,0,-1.6841,-1.6841,0,0,0,0,0,0,0,0,-1.6811,-1.6813,-1.6825,-1.6825,-1.6825,-1.6832,-1.6831,-1.6842,-1.683,-1.6828,-1.6829,-1.6829,-1.6836,-1.6837,-1.6839,-1.6852,-1.6853,-1.6841,-1.6841,-1.6842,-1.6842,0,0,0,0,0,0,0,-1.6811,-1.6813,-1.6831,-1.6825,-1.6825,-1.6823,-1.6824,-1.6833,-1.6834,-1.6828,-1.6828,-1.6829,-1.6836,-1.6839,-1.6839,-1.6853,-1.6841,-1.6842,-1.6842,-1.6842,-1.6877,-1.6877,0,0,0,0,0,0,-1.681,-1.6812,-1.683,-1.6831,-1.6817,-1.6824,-1.6825,-1.683,-1.6834,-1.6834,-1.6829,-1.6829,-1.6838,-1.6839,-1.684,-1.6855,-1.6842,-1.6842,-1.6843,-1.6876,-1.6877,-1.6877,0,0,0,0,0,0,-1.681,-1.6812,-1.683,-1.6821,-1.6823,-1.6825,-1.683,-1.683,-1.6833,-1.6835,-1.6835,-1.6832,-1.6837,-1.6839,-1.6849,-1.6856,-1.6843,-1.6843,-1.6876,-1.6877,-1.6877,-1.6887,0,0,0,0,0,0,-1.6809,-1.6812,-1.6817,-1.6821,-1.6824,-1.6839,-1.6831,-1.6831,-1.6835,-1.6834,-1.6838,-1.6838,-1.6837,-1.6848,-1.685,-1.6856,-1.6844,-1.6875,-1.6876,-1.6877,-1.6886,-1.6888,-1.689,0,0,0,0,0,-1.6808,-1.682,-1.6818,-1.682,-1.6831,-1.684,-1.6841,-1.684,-1.6835,-1.684,-1.6842,-1.6838,-1.6855,-1.6849,-1.6851,-1.6858,-1.6875,-1.6876,-1.6877,-1.6885,-1.6888,-1.689,0,0,0,0,0,0,-1.6816,-1.682,-1.6818,-1.6831,-1.6835,-1.6839,-1.6845,-1.6843,-1.6848,-1.6847,-1.6845,-1.6846,-1.6857,-1.6858,-1.6852,-1.6871,-1.6864,-1.6865,-1.687,-1.6872,-1.6873,-1.6873,-1.6845,0,0,0,0,0,-1.6819,-1.6827,-1.683,-1.6841,-1.6843,-1.6844,-1.6848,-1.6847,-1.6851,-1.6852,-1.6854,-1.6858,-1.6864,-1.6868,-1.6874,-1.6886,-1.6887,-1.6892,-1.6894,-1.6895,-1.6897,-1.6903,-1.6905,-1.6881,-1.6881,-1.6881,0,0,-1.6826,-1.6829,-1.6834,-1.6842,-1.6845,-1.6853,-1.6845,-1.6853,-1.6859,-1.6853,-1.6863,-1.6865,-1.6869,-1.688,-1.6885,-1.6882,-1.6903,-1.6897,-1.6898,-1.6898,-1.6904,-1.6907,-1.6909,-1.6882,-1.6881,-1.6881,0,0,-1.6842,-1.6845,-1.6855,-1.6858,-1.6863,-1.6863,-1.6865,-1.6869,-1.687,-1.688,-1.6876,-1.6882,-1.6893,-1.6896,-1.6899,-1.6915,-1.6912,-1.6917,-1.6926,-1.6933,-1.6934,-1.6936,-1.6942,-1.6944,-1.6918,-1.6918,-1.6918,0,-1.6849,-1.6861,-1.686,-1.6868,-1.6872,-1.6868,-1.6877,-1.688,-1.6886,-1.6889,-1.6885,-1.6898,-1.69,-1.6912,-1.6916,-1.6919,-1.6921,-1.6917,-1.6934,-1.6936,-1.6938,-1.6943,-1.6945,-1.6919,-1.6919,-1.6919,-1.6919,0,-1.6869,-1.6877,-1.6884,-1.6891,-1.6895,-1.6904,-1.6904,-1.6909,-1.6907,-1.6908,-1.6918,-1.6921,-1.6927,-1.6929,-1.6928,-1.6941,-1.6939,-1.6935,-1.6927,-1.6941,-1.6946,-1.6948,-1.692,-1.692,-1.6919,-1.6919,0,0,-1.6891,-1.6896,-1.6899,-1.6902,-1.6907,-1.6913,-1.6921,-1.6927,-1.6931,-1.6935,-1.6942,-1.6951,-1.6947,-1.695,-1.6949,-1.6955,-1.6968,-1.695,-1.695,-1.6953,-1.6982,-1.6985,-1.6988,-1.6965,-1.6966,-1.6966,-1.6982,0,-1.6907,-1.6922,-1.6921,-1.6935,-1.6942,-1.6938,-1.6945,-1.6949,-1.695,-1.6955,-1.6956,-1.6962,-1.6957,-1.6959,-1.6964,-1.6965,-1.6973,-1.6964,-1.6971,-1.6972,-1.6971,-1.699,-1.6994,-1.7008,-1.6984,-1.6984,-1.6984,0,-1.6927,-1.6933,-1.6948,-1.6951,-1.6954,-1.6961,-1.6966,-1.6972,-1.6976,-1.6976,-1.6979,-1.6977,-1.6985,-1.6978,-1.6989,-1.6982,-1.6985,-1.6986,-1.6986,-1.6987,-1.6979,-1.6992,-1.7013,-1.7015,-1.6988,-1.6987,-1.6987,0,-1.6941,-1.6952,-1.6962,-1.6965,-1.6969,-1.6974,-1.6976,-1.6979,-1.6983,-1.6988,-1.699,-1.6996,-1.6999,-1.7003,-1.7002,-1.6996,-1.7013,-1.7005,-1.7013,-1.7013,-1.7016,-1.7016,-1.7039,-1.7018,-1.7018,-1.7018,-1.7018,0,-1.6959,-1.6968,-1.6968,-1.6975,-1.6985,-1.6984,-1.6993,-1.6995,-1.6998,-1.7004,-1.7001,-1.7006,-1.7005,-1.701,-1.701,-1.7019,-1.702,-1.702,-1.702,-1.702,-1.702,-1.7022,-1.7021,-1.7019,-1.7019,-1.7019,-1.7019,0,-1.6976,-1.6977,-1.6988,-1.6991,-1.6992,-1.6999,-1.7002,-1.7008,-1.7008,-1.7016,-1.7018,-1.7018,-1.7025,-1.7024,-1.7031,-1.7031,-1.7042,-1.704,-1.7041,-1.704,-1.7048,-1.7047,-1.7072,-1.7075,-1.7053,-1.7053,-1.7053,0,-1.6988,-1.6995,-1.6999,-1.7003,-1.7005,-1.7012,-1.7016,-1.7015,-1.7019,-1.7024,-1.7029,-1.7035,-1.704,-1.705,-1.7051,-1.7056,-1.7054,-1.7063,-1.7055,-1.7056,-1.7054,-1.7054,-1.7055,-1.7064,-1.7065,-1.7065,-1.7065,0,-1.7008,-1.7008,-1.7014,-1.702,-1.7024,-1.7029,-1.7033,-1.7037,-1.7036,-1.7041,-1.7047,-1.7051,-1.7058,-1.7064,-1.7069,-1.7071,-1.7068,-1.7067,-1.7069,-1.707,-1.707,-1.707,-1.7045,-1.7067,-1.7067,-1.7067,-1.7066,-1.7066,-1.7022,-1.7028,-1.7032,-1.7039,-1.7042,-1.7046,-1.7051,-1.7053,-1.7058,-1.7064,-1.7063,-1.7071,-1.7074,-1.708,-1.7082,-1.7088,-1.7085,-1.7088,-1.7088,-1.7089,-1.709,-1.7069,-1.7089,-1.7089,-1.7089,-1.7089,-1.7088,0,-1.7042,-1.7045,-1.7051,-1.7057,-1.7062,-1.7059,-1.7063,-1.7068,-1.7074,-1.7078,-1.7083,-1.709,-1.7096,-1.7097,-1.7102,-1.7107,-1.7105,-1.7108,-1.7108,-1.7108,-1.7092,-1.709,-1.7109,-1.7109,-1.7109,-1.7109,-1.7109,-1.7109,-1.7053,-1.7063,-1.7064,-1.7075,-1.7077,-1.7084,-1.7087,-1.7091,-1.7093,-1.7102,-1.7107,-1.7108,-1.711,-1.7116,-1.7121,-1.7121,-1.7123,-1.7126,-1.7126,-1.7111,-1.7109,-1.7107,-1.7105,-1.7127,-1.7127,-1.7141,-1.7141,-1.7141]}]]